Time,TemperatureF,DewpointF,PressureIn,WindDirection,WindDirectionDegrees,WindSpeedMPH,WindSpeedGustMPH,Humidity,HourlyPrecipIn,Conditions,Clouds,dailyrainin,SoftwareType,DateUTC
2013-09-29 00:02:00,57.6,53.8,29.66,SE,135,0.0,4.0,87,0.00,,,0.00,meteohub,2013-09-28 23:02:00,
2013-09-29 00:08:00,57.6,54.0,29.66,SSW,202,0.0,4.0,88,0.00,,,0.00,meteohub,2013-09-28 23:08:00,
2013-09-29 00:14:00,57.4,54.1,29.66,ESE,112,0.0,3.0,89,0.00,,,0.00,meteohub,2013-09-28 23:14:00,
2013-09-29 00:20:00,57.4,54.1,29.66,NW,315,0.0,3.0,89,0.00,,,0.00,meteohub,2013-09-28 23:20:00,
2013-09-29 00:26:00,57.6,54.3,29.66,NE,45,0.0,3.0,89,0.00,,,0.00,meteohub,2013-09-28 23:26:00,
2013-09-29 00:32:00,57.6,54.3,29.66,East,90,3.0,6.0,89,0.00,,,0.00,meteohub,2013-09-28 23:32:00,
2013-09-29 00:37:00,57.6,54.0,29.66,NNE,22,0.0,6.0,88,0.00,,,0.00,meteohub,2013-09-28 23:37:00,
2013-09-29 00:42:00,57.4,53.8,29.69,NE,45,0.0,4.0,88,0.00,,,0.00,meteohub,2013-09-28 23:42:00,
2013-09-29 00:47:00,57.4,53.8,29.69,ENE,68,2.0,4.0,88,0.00,,,0.00,meteohub,2013-09-28 23:47:00,
2013-09-29 00:52:00,57.6,53.8,29.69,NW,315,0.0,4.0,87,0.00,,,0.00,meteohub,2013-09-28 23:52:00,
2013-09-29 00:58:00,57.6,53.1,29.66,SSW,202,3.0,4.0,85,0.00,,,0.00,meteohub,2013-09-28 23:58:00,
2013-09-29 01:04:00,57.7,52.9,29.66,SSE,158,3.0,6.0,84,0.00,,,0.00,meteohub,2013-09-29 00:04:00,
2013-09-29 01:10:00,57.7,52.7,29.66,NNW,338,0.0,4.0,83,0.00,,,0.00,meteohub,2013-09-29 00:10:00,
2013-09-29 01:16:00,57.6,52.5,29.66,South,180,2.0,4.0,83,0.00,,,0.00,meteohub,2013-09-29 00:16:00,
2013-09-29 01:22:00,57.6,52.2,29.66,SSE,158,0.0,4.0,82,0.00,,,0.00,meteohub,2013-09-29 00:22:00,
2013-09-29 01:27:00,57.6,52.2,29.66,NE,45,0.0,4.0,82,0.00,,,0.00,meteohub,2013-09-29 00:27:00,
2013-09-29 01:32:00,57.6,52.2,29.66,East,90,3.0,4.0,82,0.00,,,0.00,meteohub,2013-09-29 00:32:00,
2013-09-29 01:37:00,57.6,52.2,29.66,ENE,68,2.0,3.0,82,0.00,,,0.00,meteohub,2013-09-29 00:37:00,
2013-09-29 01:42:00,57.6,52.2,29.66,NNW,338,0.0,4.0,82,0.00,,,0.00,meteohub,2013-09-29 00:42:00,
2013-09-29 01:47:00,57.6,52.2,29.66,SSE,158,0.0,4.0,82,0.00,,,0.00,meteohub,2013-09-29 00:47:00,
2013-09-29 01:52:00,57.6,52.2,29.66,South,180,0.0,4.0,82,0.00,,,0.00,meteohub,2013-09-29 00:52:00,
2013-09-29 01:57:00,57.6,52.2,29.66,NE,45,0.0,3.0,82,0.00,,,0.00,meteohub,2013-09-29 00:57:00,
2013-09-29 02:02:00,57.6,52.5,29.66,East,90,0.0,3.0,83,0.00,,,0.00,meteohub,2013-09-29 01:02:00,
2013-09-29 02:07:00,57.4,52.3,29.66,NNE,22,0.0,3.0,83,0.00,,,0.00,meteohub,2013-09-29 01:07:00,
2013-09-29 02:12:00,57.2,52.2,29.66,NE,45,0.0,3.0,83,0.00,,,0.00,meteohub,2013-09-29 01:12:00,
2013-09-29 02:17:00,57.2,52.3,29.66,WNW,292,0.0,3.0,84,0.00,,,0.00,meteohub,2013-09-29 01:17:00,
2013-09-29 02:22:00,57.2,52.3,29.66,WSW,248,0.0,3.0,84,0.00,,,0.00,meteohub,2013-09-29 01:22:00,
2013-09-29 02:27:00,57.2,52.3,29.66,South,180,0.0,5.0,84,0.00,,,0.00,meteohub,2013-09-29 01:27:00,
2013-09-29 02:32:00,57.2,52.3,29.66,West,270,0.0,5.0,84,0.00,,,0.00,meteohub,2013-09-29 01:32:00,
2013-09-29 02:37:00,57.2,52.3,29.66,ESE,112,0.0,5.0,84,0.00,,,0.00,meteohub,2013-09-29 01:37:00,
2013-09-29 02:42:00,57.2,52.3,29.66,SSE,158,0.0,3.0,84,0.00,,,0.00,meteohub,2013-09-29 01:42:00,
2013-09-29 02:47:00,57.2,52.7,29.66,SSE,158,0.0,3.0,85,0.00,,,0.00,meteohub,2013-09-29 01:47:00,
2013-09-29 02:52:00,57.2,52.7,29.66,ESE,112,0.0,2.0,85,0.00,,,0.00,meteohub,2013-09-29 01:52:00,
2013-09-29 02:57:00,57.0,52.9,29.66,SSE,158,0.0,3.0,86,0.00,,,0.00,meteohub,2013-09-29 01:57:00,
2013-09-29 03:02:00,56.8,52.7,29.66,East,90,0.0,3.0,86,0.00,,,0.00,meteohub,2013-09-29 02:02:00,
2013-09-29 03:07:00,56.8,53.1,29.66,NNE,22,0.0,3.0,87,0.00,,,0.00,meteohub,2013-09-29 02:07:00,
2013-09-29 03:12:00,57.0,53.2,29.66,ENE,68,0.0,4.0,87,0.00,,,0.00,meteohub,2013-09-29 02:12:00,
2013-09-29 03:17:00,57.0,53.2,29.66,SSE,158,0.0,4.0,87,0.00,,,0.00,meteohub,2013-09-29 02:17:00,
2013-09-29 03:22:00,57.0,53.2,29.66,NE,45,0.0,4.0,87,0.00,,,0.00,meteohub,2013-09-29 02:22:00,
2013-09-29 03:27:00,57.0,52.9,29.63,ENE,68,3.0,4.0,86,0.00,,,0.00,meteohub,2013-09-29 02:27:00,
2013-09-29 03:32:00,57.2,53.1,29.63,East,90,4.0,4.0,86,0.00,,,0.00,meteohub,2013-09-29 02:32:00,
2013-09-29 03:37:00,57.2,52.7,29.63,ENE,68,3.0,4.0,85,0.00,,,0.00,meteohub,2013-09-29 02:37:00,
2013-09-29 03:42:00,57.4,52.9,29.63,ENE,68,3.0,4.0,85,0.00,,,0.00,meteohub,2013-09-29 02:42:00,
2013-09-29 03:47:00,57.4,52.9,29.63,NE,45,0.0,4.0,85,0.00,,,0.00,meteohub,2013-09-29 02:47:00,
2013-09-29 03:52:00,57.4,52.5,29.63,East,90,0.0,3.0,84,0.00,,,0.00,meteohub,2013-09-29 02:52:00,
2013-09-29 03:57:00,57.4,52.5,29.63,ENE,68,0.0,3.0,84,0.00,,,0.00,meteohub,2013-09-29 02:57:00,
2013-09-29 04:02:00,57.2,52.3,29.63,North,0,3.0,3.0,84,0.00,,,0.00,meteohub,2013-09-29 03:02:00,
2013-09-29 04:07:00,57.2,52.7,29.63,NNW,338,0.0,4.0,85,0.00,,,0.00,meteohub,2013-09-29 03:07:00,
2013-09-29 04:12:00,57.2,52.7,29.63,NE,45,0.0,4.0,85,0.00,,,0.00,meteohub,2013-09-29 03:12:00,
2013-09-29 04:17:00,57.2,52.7,29.63,South,180,2.0,4.0,85,0.00,,,0.00,meteohub,2013-09-29 03:17:00,
2013-09-29 04:22:00,57.2,52.7,29.63,NNE,22,0.0,4.0,85,0.00,,,0.00,meteohub,2013-09-29 03:22:00,
2013-09-29 04:27:00,57.2,52.7,29.63,NE,45,4.0,4.0,85,0.00,,,0.00,meteohub,2013-09-29 03:27:00,
2013-09-29 04:32:00,57.2,52.3,29.63,SE,135,3.0,4.0,84,0.00,,,0.00,meteohub,2013-09-29 03:32:00,
2013-09-29 04:38:00,57.0,52.5,29.63,ESE,112,0.0,4.0,85,0.00,,,0.00,meteohub,2013-09-29 03:38:00,
2013-09-29 04:44:00,56.8,52.3,29.63,SSE,158,0.0,4.0,85,0.00,,,0.00,meteohub,2013-09-29 03:44:00,
2013-09-29 04:50:00,56.7,52.2,29.63,NE,45,0.0,4.0,85,0.00,,,0.00,meteohub,2013-09-29 03:50:00,
2013-09-29 04:56:00,56.7,52.2,29.63,SE,135,3.0,5.0,85,0.00,,,0.00,meteohub,2013-09-29 03:56:00,
2013-09-29 05:02:00,56.7,52.5,29.63,NW,315,0.0,5.0,86,0.00,,,0.00,meteohub,2013-09-29 04:02:00,
2013-09-29 05:04:00,56.7,52.5,29.63,NE,45,0.0,5.0,86,0.00,,,0.00,meteohub,2013-09-29 04:04:00,
2013-09-29 05:08:00,56.7,52.5,29.63,ENE,68,2.0,5.0,86,0.00,,,0.00,meteohub,2013-09-29 04:08:00,
2013-09-29 05:14:00,56.8,52.7,29.63,ESE,112,2.0,5.0,86,0.00,,,0.00,meteohub,2013-09-29 04:14:00,
2013-09-29 05:21:00,57.0,52.9,29.63,North,0,0.0,4.0,86,0.00,,,0.00,meteohub,2013-09-29 04:21:00,
2013-09-29 05:25:00,57.2,53.1,29.63,NNW,338,0.0,4.0,86,0.00,,,0.00,meteohub,2013-09-29 04:25:00,
2013-09-29 05:31:00,57.2,52.7,29.63,East,90,0.0,4.0,85,0.00,,,0.00,meteohub,2013-09-29 04:31:00,
2013-09-29 05:37:00,57.2,52.7,29.63,East,90,0.0,4.0,85,0.00,,,0.00,meteohub,2013-09-29 04:37:00,
2013-09-29 05:42:00,57.2,52.7,29.63,NNW,338,2.0,4.0,85,0.00,,,0.00,meteohub,2013-09-29 04:42:00,
2013-09-29 05:47:00,57.2,52.7,29.63,WNW,292,0.0,4.0,85,0.00,,,0.00,meteohub,2013-09-29 04:47:00,
2013-09-29 05:52:00,57.2,52.7,29.63,NE,45,0.0,4.0,85,0.00,,,0.00,meteohub,2013-09-29 04:52:00,
2013-09-29 05:57:00,57.0,52.5,29.63,ESE,112,0.0,4.0,85,0.00,,,0.00,meteohub,2013-09-29 04:57:00,
2013-09-29 06:02:00,57.0,52.5,29.63,East,90,3.0,4.0,85,0.00,,,0.00,meteohub,2013-09-29 05:02:00,
2013-09-29 06:07:00,57.2,52.7,29.63,West,270,2.0,4.0,85,0.00,,,0.00,meteohub,2013-09-29 05:07:00,
2013-09-29 06:12:00,57.0,52.5,29.63,NW,315,0.0,3.0,85,0.00,,,0.00,meteohub,2013-09-29 05:12:00,
2013-09-29 06:17:00,57.0,52.5,29.63,East,90,0.0,3.0,85,0.00,,,0.00,meteohub,2013-09-29 05:17:00,
2013-09-29 06:22:00,57.2,52.3,29.63,NNW,338,0.0,5.0,84,0.00,,,0.00,meteohub,2013-09-29 05:22:00,
2013-09-29 06:27:00,57.2,52.3,29.63,NE,45,3.0,5.0,84,0.00,,,0.00,meteohub,2013-09-29 05:27:00,
2013-09-29 06:32:00,57.2,52.3,29.63,North,0,0.0,4.0,84,0.00,,,0.00,meteohub,2013-09-29 05:32:00,
2013-09-29 06:37:00,57.2,52.3,29.63,West,270,2.0,4.0,84,0.00,,,0.00,meteohub,2013-09-29 05:37:00,
2013-09-29 06:42:00,57.2,52.2,29.63,ENE,68,0.0,4.0,83,0.00,,,0.00,meteohub,2013-09-29 05:42:00,
2013-09-29 06:47:00,57.2,52.2,29.63,WNW,292,0.0,4.0,83,0.00,,,0.00,meteohub,2013-09-29 05:47:00,
2013-09-29 06:52:00,57.2,52.2,29.63,SSW,202,0.0,4.0,83,0.00,,,0.00,meteohub,2013-09-29 05:52:00,
2013-09-29 06:57:00,57.2,52.2,29.63,South,180,0.0,4.0,83,0.00,,,0.00,meteohub,2013-09-29 05:57:00,
2013-09-29 07:02:00,57.2,51.8,29.63,SSE,158,3.0,5.0,82,0.00,,,0.00,meteohub,2013-09-29 06:02:00,
2013-09-29 07:07:00,57.2,51.8,29.63,ENE,68,4.0,6.0,82,0.00,,,0.00,meteohub,2013-09-29 06:07:00,
2013-09-29 07:12:00,57.4,52.0,29.63,NE,45,0.0,6.0,82,0.00,,,0.00,meteohub,2013-09-29 06:12:00,
2013-09-29 07:17:00,57.4,52.0,29.63,South,180,2.0,4.0,82,0.00,,,0.00,meteohub,2013-09-29 06:17:00,
2013-09-29 07:22:00,57.2,51.8,29.63,West,270,3.0,5.0,82,0.00,,,0.00,meteohub,2013-09-29 06:22:00,
2013-09-29 07:27:00,57.4,51.6,29.63,ENE,68,4.0,6.0,81,0.00,,,0.00,meteohub,2013-09-29 06:27:00,
2013-09-29 07:32:00,57.4,51.6,29.63,East,90,2.0,6.0,81,0.00,,,0.00,meteohub,2013-09-29 06:32:00,
2013-09-29 07:37:00,57.4,51.6,29.63,East,90,3.0,6.0,81,0.00,,,0.00,meteohub,2013-09-29 06:37:00,
2013-09-29 07:42:00,57.4,51.6,29.63,NE,45,0.0,5.0,81,0.00,,,0.00,meteohub,2013-09-29 06:42:00,
2013-09-29 07:47:00,57.4,51.6,29.63,SW,225,2.0,4.0,81,0.00,,,0.00,meteohub,2013-09-29 06:47:00,
2013-09-29 07:52:00,57.4,51.6,29.63,NNE,22,3.0,5.0,81,0.00,,,0.00,meteohub,2013-09-29 06:52:00,
2013-09-29 07:57:00,57.4,51.6,29.63,ENE,68,4.0,8.0,81,0.00,,,0.00,meteohub,2013-09-29 06:57:00,
2013-09-29 08:02:00,57.6,51.4,29.63,North,0,2.0,8.0,80,0.00,,,0.00,meteohub,2013-09-29 07:02:00,
2013-09-29 08:07:00,57.6,51.4,29.63,SSE,158,3.0,8.0,80,0.00,,,0.00,meteohub,2013-09-29 07:07:00,
2013-09-29 08:12:00,57.6,51.4,29.63,ENE,68,3.0,6.0,80,0.00,,,0.00,meteohub,2013-09-29 07:12:00,
2013-09-29 08:17:00,57.6,51.4,29.63,SE,135,3.0,6.0,80,0.00,,,0.00,meteohub,2013-09-29 07:17:00,
2013-09-29 08:22:00,57.7,51.6,29.63,East,90,2.0,5.0,80,0.00,,,0.00,meteohub,2013-09-29 07:22:00,
2013-09-29 08:27:00,57.9,51.8,29.63,NNE,22,3.0,5.0,80,0.00,,,0.00,meteohub,2013-09-29 07:27:00,
2013-09-29 08:32:00,57.9,51.8,29.63,WSW,248,0.0,5.0,80,0.00,,,0.00,meteohub,2013-09-29 07:32:00,
2013-09-29 08:37:00,57.9,51.8,29.63,NE,45,0.0,4.0,80,0.00,,,0.00,meteohub,2013-09-29 07:37:00,
2013-09-29 08:42:00,57.9,51.8,29.63,ENE,68,3.0,4.0,80,0.00,,,0.00,meteohub,2013-09-29 07:42:00,
2013-09-29 08:47:00,57.9,52.2,29.63,NW,315,3.0,5.0,81,0.00,,,0.00,meteohub,2013-09-29 07:47:00,
2013-09-29 08:52:00,58.1,52.3,29.63,North,0,3.0,6.0,81,0.00,,,0.00,meteohub,2013-09-29 07:52:00,
2013-09-29 08:57:00,58.3,52.5,29.63,North,0,2.0,6.0,81,0.00,,,0.00,meteohub,2013-09-29 07:57:00,
2013-09-29 09:02:00,58.3,52.2,29.63,East,90,3.0,6.0,80,0.00,,,0.00,meteohub,2013-09-29 08:02:00,
2013-09-29 09:07:00,58.3,52.2,29.63,ENE,68,0.0,4.0,80,0.00,,,0.00,meteohub,2013-09-29 08:07:00,
2013-09-29 09:12:00,58.3,52.2,29.63,North,0,0.0,4.0,80,0.00,,,0.00,meteohub,2013-09-29 08:12:00,
2013-09-29 09:17:00,58.3,52.2,29.63,NNE,22,3.0,6.0,80,0.00,,,0.00,meteohub,2013-09-29 08:17:00,
2013-09-29 09:22:00,58.3,51.8,29.63,WNW,292,3.0,6.0,79,0.00,,,0.00,meteohub,2013-09-29 08:22:00,
2013-09-29 09:27:00,58.3,51.8,29.63,NE,45,3.0,6.0,79,0.00,,,0.00,meteohub,2013-09-29 08:27:00,
2013-09-29 09:32:00,58.5,52.0,29.63,NE,45,2.0,6.0,79,0.00,,,0.00,meteohub,2013-09-29 08:32:00,
2013-09-29 09:38:00,58.5,51.6,29.63,ESE,112,4.0,5.0,78,0.00,,,0.00,meteohub,2013-09-29 08:38:00,
2013-09-29 09:44:00,58.6,51.8,29.63,North,0,4.0,5.0,78,0.00,,,0.00,meteohub,2013-09-29 08:44:00,
2013-09-29 09:50:00,58.8,52.0,29.63,NE,45,3.0,4.0,78,0.00,,,0.00,meteohub,2013-09-29 08:50:00,
2013-09-29 09:56:00,59.0,52.2,29.63,NNW,338,3.0,6.0,78,0.00,,,0.00,meteohub,2013-09-29 08:56:00,
2013-09-29 10:02:00,59.2,52.0,29.63,SW,225,0.0,6.0,77,0.00,,,0.00,meteohub,2013-09-29 09:02:00,
2013-09-29 10:07:00,59.2,51.6,29.63,ENE,68,2.0,6.0,76,0.00,,,0.00,meteohub,2013-09-29 09:07:00,
2013-09-29 10:12:00,59.4,51.4,29.63,NE,45,3.0,6.0,75,0.00,,,0.00,meteohub,2013-09-29 09:12:00,
2013-09-29 10:17:00,59.5,51.3,29.63,NE,45,4.0,6.0,74,0.00,,,0.00,meteohub,2013-09-29 09:17:00,
2013-09-29 10:22:00,59.9,51.6,29.63,North,0,4.0,5.0,74,0.00,,,0.00,meteohub,2013-09-29 09:22:00,
2013-09-29 10:27:00,60.6,52.3,29.63,NNE,22,0.0,5.0,74,0.00,,,0.00,meteohub,2013-09-29 09:27:00,
2013-09-29 10:32:00,61.5,52.0,29.63,ENE,68,3.0,5.0,71,0.00,,,0.00,meteohub,2013-09-29 09:32:00,
2013-09-29 10:37:00,61.9,51.3,29.63,East,90,3.0,5.0,68,0.00,,,0.00,meteohub,2013-09-29 09:37:00,
2013-09-29 10:42:00,61.3,49.8,29.63,North,0,0.0,5.0,66,0.00,,,0.00,meteohub,2013-09-29 09:42:00,
2013-09-29 10:47:00,61.0,50.0,29.63,East,90,0.0,6.0,67,0.00,,,0.00,meteohub,2013-09-29 09:47:00,
2013-09-29 10:52:00,61.2,50.5,29.63,South,180,0.0,6.0,68,0.00,,,0.00,meteohub,2013-09-29 09:52:00,
2013-09-29 10:57:00,61.5,51.3,29.63,NNW,338,3.0,5.0,69,0.00,,,0.00,meteohub,2013-09-29 09:57:00,
2013-09-29 11:02:00,61.5,50.5,29.63,NNE,22,3.0,8.0,67,0.00,,,0.00,meteohub,2013-09-29 10:02:00,
2013-09-29 11:07:00,61.2,50.2,29.63,North,0,4.0,8.0,67,0.00,,,0.00,meteohub,2013-09-29 10:07:00,
2013-09-29 11:12:00,61.0,50.0,29.63,North,0,3.0,6.0,67,0.00,,,0.00,meteohub,2013-09-29 10:12:00,
2013-09-29 11:17:00,61.3,50.7,29.63,SE,135,3.0,6.0,68,0.00,,,0.00,meteohub,2013-09-29 10:17:00,
2013-09-29 11:22:00,61.9,51.3,29.63,NW,315,2.0,7.0,68,0.00,,,0.00,meteohub,2013-09-29 10:22:00,
2013-09-29 11:27:00,63.1,52.0,29.63,ESE,112,2.0,7.0,67,0.00,,,0.00,meteohub,2013-09-29 10:27:00,
2013-09-29 11:32:00,64.9,50.7,29.63,ENE,68,4.0,8.0,60,0.00,,,0.00,meteohub,2013-09-29 10:32:00,
2013-09-29 11:37:00,66.4,50.2,29.63,ESE,112,2.0,8.0,56,0.00,,,0.00,meteohub,2013-09-29 10:37:00,
2013-09-29 11:42:00,67.3,49.1,29.63,NE,45,2.0,8.0,52,0.00,,,0.00,meteohub,2013-09-29 10:42:00,
2013-09-29 11:47:00,68.4,49.1,29.63,ESE,112,3.0,5.0,50,0.00,,,0.00,meteohub,2013-09-29 10:47:00,
2013-09-29 11:52:00,68.9,47.3,29.63,North,0,2.0,5.0,46,0.00,,,0.00,meteohub,2013-09-29 10:52:00,
2013-09-29 11:57:00,69.3,47.7,29.63,NE,45,4.0,5.0,46,0.00,,,0.00,meteohub,2013-09-29 10:57:00,
2013-09-29 12:02:00,70.0,47.7,29.63,East,90,2.0,5.0,45,0.00,,,0.00,meteohub,2013-09-29 11:02:00,
2013-09-29 12:07:00,70.3,46.8,29.63,WNW,292,3.0,6.0,43,0.00,,,0.00,meteohub,2013-09-29 11:07:00,
2013-09-29 12:12:00,69.8,46.4,29.63,NW,315,0.0,6.0,43,0.00,,,0.00,meteohub,2013-09-29 11:12:00,
2013-09-29 12:17:00,68.5,45.1,29.63,NNW,338,3.0,6.0,43,0.00,,,0.00,meteohub,2013-09-29 11:17:00,
2013-09-29 12:22:00,67.6,46.2,29.63,SSW,202,5.0,8.0,46,0.00,,,0.00,meteohub,2013-09-29 11:22:00,
2013-09-29 12:27:00,67.8,47.5,29.63,North,0,4.0,8.0,48,0.00,,,0.00,meteohub,2013-09-29 11:27:00,
2013-09-29 12:32:00,68.0,46.4,29.63,WSW,248,3.0,8.0,46,0.00,,,0.00,meteohub,2013-09-29 11:32:00,
2013-09-29 12:37:00,67.6,46.2,29.63,SW,225,4.0,6.0,46,0.00,,,0.00,meteohub,2013-09-29 11:37:00,
2013-09-29 12:42:00,66.9,46.0,29.63,NNW,338,4.0,6.0,47,0.00,,,0.00,meteohub,2013-09-29 11:42:00,
2013-09-29 12:47:00,66.0,46.4,29.63,WNW,292,0.0,6.0,49,0.00,,,0.00,meteohub,2013-09-29 11:47:00,
2013-09-29 12:52:00,65.5,46.9,29.63,SSW,202,3.0,6.0,51,0.00,,,0.00,meteohub,2013-09-29 11:52:00,
2013-09-29 12:57:00,65.1,46.6,29.63,SE,135,4.0,6.0,51,0.00,,,0.00,meteohub,2013-09-29 11:57:00,
2013-09-29 13:02:00,64.8,46.8,29.63,East,90,0.0,5.0,52,0.00,,,0.00,meteohub,2013-09-29 12:02:00,
2013-09-29 13:07:00,64.9,47.5,29.63,WSW,248,4.0,7.0,53,0.00,,,0.00,meteohub,2013-09-29 12:07:00,
2013-09-29 13:12:00,64.9,46.9,29.63,SW,225,0.0,7.0,52,0.00,,,0.00,meteohub,2013-09-29 12:12:00,
2013-09-29 13:17:00,66.2,48.0,29.63,SSW,202,0.0,7.0,52,0.00,,,0.00,meteohub,2013-09-29 12:17:00,
2013-09-29 13:22:00,67.3,46.4,29.63,SE,135,3.0,5.0,47,0.00,,,0.00,meteohub,2013-09-29 12:22:00,
2013-09-29 13:27:00,68.0,47.1,29.63,North,0,2.0,6.0,47,0.00,,,0.00,meteohub,2013-09-29 12:27:00,
2013-09-29 13:32:00,69.4,47.1,29.63,NNE,22,4.0,6.0,45,0.00,,,0.00,meteohub,2013-09-29 12:32:00,
2013-09-29 13:37:00,70.0,45.9,29.63,SE,135,4.0,6.0,42,0.00,,,0.00,meteohub,2013-09-29 12:37:00,
2013-09-29 13:42:00,70.0,45.9,29.63,SSW,202,3.0,5.0,42,0.00,,,0.00,meteohub,2013-09-29 12:42:00,
2013-09-29 13:47:00,70.2,46.0,29.63,South,180,4.0,5.0,42,0.00,,,0.00,meteohub,2013-09-29 12:47:00,
2013-09-29 13:52:00,70.5,46.9,29.63,SE,135,2.0,5.0,43,0.00,,,0.00,meteohub,2013-09-29 12:52:00,
2013-09-29 13:57:00,71.4,47.1,29.63,SSW,202,2.0,5.0,42,0.00,,,0.00,meteohub,2013-09-29 12:57:00,
2013-09-29 14:02:00,71.4,46.6,29.63,NE,45,2.0,5.0,41,0.00,,,0.00,meteohub,2013-09-29 13:02:00,
2013-09-29 14:07:00,72.1,46.6,29.63,NW,315,3.0,5.0,40,0.00,,,0.00,meteohub,2013-09-29 13:07:00,
2013-09-29 14:12:00,72.1,46.6,29.63,North,0,2.0,5.0,40,0.00,,,0.00,meteohub,2013-09-29 13:12:00,
2013-09-29 14:17:00,70.9,45.3,29.63,SSW,202,3.0,5.0,40,0.00,,,0.00,meteohub,2013-09-29 13:17:00,
2013-09-29 14:22:00,70.9,46.6,29.63,SSW,202,3.0,5.0,42,0.00,,,0.00,meteohub,2013-09-29 13:22:00,
2013-09-29 14:27:00,70.7,45.9,29.63,WSW,248,3.0,5.0,41,0.00,,,0.00,meteohub,2013-09-29 13:27:00,
2013-09-29 14:32:00,69.8,45.1,29.63,ENE,68,3.0,6.0,41,0.00,,,0.00,meteohub,2013-09-29 13:32:00,
2013-09-29 14:38:00,68.7,45.3,29.63,SSE,158,0.0,6.0,43,-99.99,,,0.00,meteohub,2013-09-29 13:38:00,
2013-09-29 14:44:00,68.7,45.9,29.63,South,180,4.0,8.0,44,-99.99,,,0.00,meteohub,2013-09-29 13:44:00,
2013-09-29 14:51:00,68.0,45.3,29.63,ESE,112,2.0,6.0,44,-99.99,,,0.00,meteohub,2013-09-29 13:51:00,
2013-09-29 14:57:00,68.0,45.3,29.63,SE,135,3.0,7.0,44,-99.99,,,0.00,meteohub,2013-09-29 13:57:00,
2013-09-29 15:02:00,68.0,45.3,29.63,SSW,202,5.0,8.0,44,-99.99,,,0.00,meteohub,2013-09-29 14:02:00,
2013-09-29 15:07:00,68.0,45.3,29.63,South,180,4.0,8.0,44,-99.99,,,0.00,meteohub,2013-09-29 14:07:00,
2013-09-29 15:12:00,68.0,45.9,29.63,SSW,202,4.0,8.0,45,-99.99,,,0.00,meteohub,2013-09-29 14:12:00,
2013-09-29 15:17:00,67.5,46.0,29.63,WNW,292,2.0,8.0,46,-99.99,,,0.00,meteohub,2013-09-29 14:17:00,
2013-09-29 15:22:00,67.6,45.5,29.63,NNE,22,3.0,8.0,45,-99.99,,,0.00,meteohub,2013-09-29 14:22:00,
2013-09-29 15:27:00,67.6,45.5,29.63,North,0,3.0,8.0,45,-99.99,,,0.00,meteohub,2013-09-29 14:27:00,
2013-09-29 15:32:00,67.8,45.7,29.63,West,270,5.0,6.0,45,-99.99,,,0.00,meteohub,2013-09-29 14:32:00,
2013-09-29 15:37:00,67.6,45.5,29.63,SSE,158,4.0,6.0,45,-99.99,,,0.00,meteohub,2013-09-29 14:37:00,
2013-09-29 15:42:00,67.1,45.7,29.63,SSE,158,4.0,6.0,46,-99.99,,,0.00,meteohub,2013-09-29 14:42:00,
2013-09-29 15:47:00,67.3,45.9,29.63,ENE,68,3.0,6.0,46,-99.99,,,0.00,meteohub,2013-09-29 14:47:00,
2013-09-29 15:52:00,67.3,45.3,29.63,ENE,68,3.0,6.0,45,-99.99,,,0.00,meteohub,2013-09-29 14:52:00,
2013-09-29 15:57:00,67.1,45.7,29.63,SSE,158,3.0,6.0,46,-99.99,,,0.00,meteohub,2013-09-29 14:57:00,
2013-09-29 16:02:00,66.6,45.1,29.63,SW,225,0.0,6.0,46,-99.99,,,0.00,meteohub,2013-09-29 15:02:00,
2013-09-29 16:07:00,66.7,45.9,29.63,NE,45,4.0,8.0,47,-99.99,,,0.00,meteohub,2013-09-29 15:07:00,
2013-09-29 16:12:00,66.2,45.3,29.63,ENE,68,3.0,8.0,47,-99.99,,,0.00,meteohub,2013-09-29 15:12:00,
2013-09-29 16:17:00,65.7,45.5,29.63,SSW,202,4.0,8.0,48,-99.99,,,0.00,meteohub,2013-09-29 15:17:00,
2013-09-29 16:22:00,65.5,45.9,29.63,NE,45,0.0,6.0,49,-99.99,,,0.00,meteohub,2013-09-29 15:22:00,
2013-09-29 16:27:00,65.7,46.0,29.63,East,90,2.0,6.0,49,-99.99,,,0.00,meteohub,2013-09-29 15:27:00,
2013-09-29 16:32:00,65.8,46.2,29.63,South,180,0.0,5.0,49,-99.99,,,0.00,meteohub,2013-09-29 15:32:00,
2013-09-29 16:37:00,65.8,45.7,29.63,South,180,2.0,6.0,48,-99.99,,,0.00,meteohub,2013-09-29 15:37:00,
2013-09-29 16:42:00,64.9,45.3,29.63,SSE,158,3.0,7.0,49,-99.99,,,0.00,meteohub,2013-09-29 15:42:00,
2013-09-29 16:47:00,64.2,45.7,29.63,East,90,0.0,7.0,51,-99.99,,,0.00,meteohub,2013-09-29 15:47:00,
2013-09-29 16:52:00,63.9,45.9,29.63,SW,225,0.0,7.0,52,0.00,,,0.00,meteohub,2013-09-29 15:52:00,
2013-09-29 16:57:00,63.3,46.9,29.63,WNW,292,0.0,5.0,55,0.00,,,0.00,meteohub,2013-09-29 15:57:00,
2013-09-29 17:02:00,63.0,47.1,29.63,SE,135,3.0,5.0,56,0.00,,,0.00,meteohub,2013-09-29 16:02:00,
2013-09-29 17:07:00,62.8,47.3,29.63,NNE,22,4.0,5.0,57,0.00,,,0.00,meteohub,2013-09-29 16:07:00,
2013-09-29 17:12:00,62.2,47.8,29.63,East,90,3.0,5.0,59,0.00,,,0.00,meteohub,2013-09-29 16:12:00,
2013-09-29 17:17:00,61.9,47.5,29.63,SSW,202,0.0,4.0,59,0.00,,,0.00,meteohub,2013-09-29 16:17:00,
2013-09-29 17:22:00,61.5,47.5,29.63,SSW,202,2.0,4.0,60,0.00,,,0.00,meteohub,2013-09-29 16:22:00,
2013-09-29 17:27:00,61.3,47.8,29.63,North,0,3.0,5.0,61,0.00,,,0.00,meteohub,2013-09-29 16:27:00,
2013-09-29 17:32:00,61.2,48.0,29.63,NE,45,3.0,5.0,62,0.00,,,0.00,meteohub,2013-09-29 16:32:00,
2013-09-29 17:37:00,61.0,48.4,29.63,West,270,0.0,4.0,63,0.00,,,0.00,meteohub,2013-09-29 16:37:00,
2013-09-29 17:42:00,60.6,48.4,29.63,SSW,202,0.0,4.0,64,0.00,,,0.00,meteohub,2013-09-29 16:42:00,
2013-09-29 17:47:00,60.4,48.6,29.63,NE,45,2.0,4.0,65,0.00,,,0.00,meteohub,2013-09-29 16:47:00,
2013-09-29 17:52:00,60.4,48.6,29.63,North,0,3.0,4.0,65,0.00,,,0.00,meteohub,2013-09-29 16:52:00,
2013-09-29 17:57:00,60.1,48.7,29.63,NNW,338,3.0,6.0,66,0.00,,,0.00,meteohub,2013-09-29 16:57:00,
2013-09-29 18:02:00,60.1,49.1,29.63,SSW,202,3.0,6.0,67,0.00,,,0.00,meteohub,2013-09-29 17:02:00,
2013-09-29 18:07:00,59.9,48.9,29.63,South,180,3.0,6.0,67,0.00,,,0.00,meteohub,2013-09-29 17:07:00,
2013-09-29 18:12:00,59.7,48.7,29.63,South,180,3.0,4.0,67,0.00,,,0.00,meteohub,2013-09-29 17:12:00,
2013-09-29 18:17:00,59.7,48.7,29.63,NW,315,0.0,4.0,67,0.00,,,0.00,meteohub,2013-09-29 17:17:00,
2013-09-29 18:22:00,59.5,48.9,29.63,NNW,338,2.0,4.0,68,0.00,,,0.00,meteohub,2013-09-29 17:22:00,
2013-09-29 18:27:00,59.4,48.7,29.63,ENE,68,0.0,4.0,68,0.00,,,0.00,meteohub,2013-09-29 17:27:00,
2013-09-29 18:32:00,59.4,49.3,29.63,NE,45,0.0,3.0,69,0.00,,,0.00,meteohub,2013-09-29 17:32:00,
2013-09-29 18:38:00,59.2,49.1,29.63,NE,45,0.0,5.0,69,0.00,,,0.00,meteohub,2013-09-29 17:38:00,
2013-09-29 18:44:00,59.2,49.5,29.66,South,180,3.0,5.0,70,0.00,,,0.00,meteohub,2013-09-29 17:44:00,
2013-09-29 18:50:00,59.0,49.3,29.66,SW,225,2.0,6.0,70,0.00,,,0.00,meteohub,2013-09-29 17:50:00,
2013-09-29 18:56:00,59.0,49.3,29.63,ENE,68,0.0,6.0,70,0.00,,,0.00,meteohub,2013-09-29 17:56:00,
2013-09-29 19:02:00,59.0,49.3,29.63,SE,135,0.0,5.0,70,0.00,,,0.00,meteohub,2013-09-29 18:02:00,
2013-09-29 19:07:00,58.8,49.5,29.63,ENE,68,2.0,4.0,71,0.00,,,0.00,meteohub,2013-09-29 18:07:00,
2013-09-29 19:12:00,58.8,49.5,29.66,WSW,248,0.0,4.0,71,0.00,,,0.00,meteohub,2013-09-29 18:12:00,
2013-09-29 19:17:00,58.8,49.5,29.66,East,90,3.0,4.0,71,0.00,,,0.00,meteohub,2013-09-29 18:17:00,
2013-09-29 19:22:00,58.8,49.5,29.66,NE,45,0.0,4.0,71,0.00,,,0.00,meteohub,2013-09-29 18:22:00,
2013-09-29 19:27:00,58.8,49.8,29.63,WNW,292,0.0,3.0,72,0.00,,,0.00,meteohub,2013-09-29 18:27:00,
2013-09-29 19:32:00,58.8,49.8,29.63,ENE,68,2.0,3.0,72,0.00,,,0.00,meteohub,2013-09-29 18:32:00,
2013-09-29 19:37:00,58.8,49.5,29.63,NNE,22,0.0,4.0,71,0.00,,,0.00,meteohub,2013-09-29 18:37:00,
2013-09-29 19:42:00,58.8,49.8,29.66,NNW,338,0.0,4.0,72,0.00,,,0.00,meteohub,2013-09-29 18:42:00,
2013-09-29 19:47:00,58.8,49.8,29.66,North,0,0.0,4.0,72,0.00,,,0.00,meteohub,2013-09-29 18:47:00,
2013-09-29 19:52:00,58.6,49.6,29.66,East,90,0.0,3.0,72,0.00,,,0.00,meteohub,2013-09-29 18:52:00,
2013-09-29 19:57:00,58.8,49.8,29.63,NE,45,3.0,4.0,72,0.00,,,0.00,meteohub,2013-09-29 18:57:00,
2013-09-29 20:02:00,58.8,49.5,29.63,SW,225,0.0,4.0,71,0.00,,,0.00,meteohub,2013-09-29 19:02:00,
2013-09-29 20:07:00,58.8,49.8,29.63,ESE,112,5.0,5.0,72,0.00,,,0.00,meteohub,2013-09-29 19:07:00,
2013-09-29 20:12:00,58.8,49.5,29.66,ESE,112,0.0,5.0,71,0.00,,,0.00,meteohub,2013-09-29 19:12:00,
2013-09-29 20:17:00,58.8,49.5,29.66,NNW,338,3.0,5.0,71,0.00,,,0.00,meteohub,2013-09-29 19:17:00,
2013-09-29 20:22:00,58.8,49.5,29.66,NNW,338,0.0,5.0,71,0.00,,,0.00,meteohub,2013-09-29 19:22:00,
2013-09-29 20:27:00,58.8,49.5,29.66,NE,45,2.0,4.0,71,0.00,,,0.00,meteohub,2013-09-29 19:27:00,
2013-09-29 20:32:00,58.8,49.8,29.66,NNE,22,0.0,4.0,72,0.00,,,0.00,meteohub,2013-09-29 19:32:00,
2013-09-29 20:37:00,58.8,49.8,29.66,North,0,2.0,3.0,72,0.00,,,0.00,meteohub,2013-09-29 19:37:00,
2013-09-29 20:42:00,58.8,49.8,29.66,NE,45,0.0,3.0,72,0.00,,,0.00,meteohub,2013-09-29 19:42:00,
2013-09-29 20:47:00,58.8,49.8,29.66,South,180,0.0,3.0,72,0.00,,,0.00,meteohub,2013-09-29 19:47:00,
2013-09-29 20:52:00,58.8,49.8,29.66,SW,225,4.0,4.0,72,0.00,,,0.00,meteohub,2013-09-29 19:52:00,
2013-09-29 20:57:00,58.8,49.8,29.66,NNE,22,0.0,4.0,72,0.00,,,0.00,meteohub,2013-09-29 19:57:00,
2013-09-29 21:02:00,58.8,49.8,29.66,WSW,248,0.0,4.0,72,0.00,,,0.00,meteohub,2013-09-29 20:02:00,
2013-09-29 21:07:00,59.0,49.6,29.66,East,90,0.0,4.0,71,0.00,,,0.00,meteohub,2013-09-29 20:07:00,
2013-09-29 21:12:00,59.0,49.6,29.66,ESE,112,0.0,4.0,71,0.00,,,0.00,meteohub,2013-09-29 20:12:00,
2013-09-29 21:17:00,59.0,50.0,29.66,SSW,202,0.0,4.0,72,0.00,,,0.00,meteohub,2013-09-29 20:17:00,
2013-09-29 21:22:00,59.0,50.0,29.66,South,180,3.0,3.0,72,0.00,,,0.00,meteohub,2013-09-29 20:22:00,
2013-09-29 21:27:00,59.0,50.0,29.66,SSE,158,0.0,3.0,72,0.00,,,0.00,meteohub,2013-09-29 20:27:00,
2013-09-29 21:32:00,59.0,50.0,29.66,SE,135,0.0,4.0,72,0.00,,,0.00,meteohub,2013-09-29 20:32:00,
2013-09-29 21:37:00,59.0,50.0,29.66,SW,225,0.0,4.0,72,0.00,,,0.00,meteohub,2013-09-29 20:37:00,
2013-09-29 21:42:00,59.0,50.0,29.66,NNW,338,0.0,4.0,72,0.00,,,0.00,meteohub,2013-09-29 20:42:00,
2013-09-29 21:47:00,59.0,50.0,29.66,SSW,202,2.0,4.0,72,0.00,,,0.00,meteohub,2013-09-29 20:47:00,
2013-09-29 21:52:00,59.0,50.0,29.66,NNE,22,0.0,4.0,72,0.00,,,0.00,meteohub,2013-09-29 20:52:00,
2013-09-29 21:57:00,59.0,50.0,29.63,NNE,22,0.0,4.0,72,0.00,,,0.00,meteohub,2013-09-29 20:57:00,
2013-09-29 22:02:00,58.8,50.2,29.63,South,180,0.0,4.0,73,0.00,,,0.00,meteohub,2013-09-29 21:02:00,
2013-09-29 22:07:00,58.8,50.2,29.63,North,0,0.0,0.0,73,0.00,,,0.00,meteohub,2013-09-29 21:07:00,
2013-09-29 22:12:00,58.8,50.2,29.63,NW,315,0.0,2.0,73,0.00,,,0.00,meteohub,2013-09-29 21:12:00,
2013-09-29 22:17:00,58.8,50.2,29.63,North,0,0.0,3.0,73,0.00,,,0.00,meteohub,2013-09-29 21:17:00,
2013-09-29 22:22:00,58.8,50.5,29.63,East,90,0.0,3.0,74,0.00,,,0.00,meteohub,2013-09-29 21:22:00,
2013-09-29 22:27:00,58.8,50.2,29.63,ENE,68,0.0,4.0,73,0.00,,,0.00,meteohub,2013-09-29 21:27:00,
2013-09-29 22:32:00,58.8,50.5,29.63,NW,315,0.0,4.0,74,0.00,,,0.00,meteohub,2013-09-29 21:32:00,
2013-09-29 22:37:00,58.8,50.5,29.63,East,90,0.0,4.0,74,0.00,,,0.00,meteohub,2013-09-29 21:37:00,
2013-09-29 22:42:00,58.8,50.5,29.66,NNW,338,0.0,3.0,74,0.00,,,0.00,meteohub,2013-09-29 21:42:00,
2013-09-29 22:47:00,58.8,50.5,29.66,ESE,112,0.0,4.0,74,0.00,,,0.00,meteohub,2013-09-29 21:47:00,
2013-09-29 22:52:00,58.8,50.5,29.66,ESE,112,0.0,4.0,74,0.00,,,0.00,meteohub,2013-09-29 21:52:00,
2013-09-29 22:57:00,58.8,50.5,29.63,ESE,112,0.0,4.0,74,0.00,,,0.00,meteohub,2013-09-29 21:57:00,
2013-09-29 23:02:00,58.8,50.5,29.63,NNE,22,0.0,0.0,74,0.00,,,0.00,meteohub,2013-09-29 22:02:00,
2013-09-29 23:07:00,58.8,50.5,29.63,NE,45,0.0,2.0,74,0.00,,,0.00,meteohub,2013-09-29 22:07:00,
2013-09-29 23:12:00,58.8,50.5,29.63,East,90,0.0,2.0,74,0.00,,,0.00,meteohub,2013-09-29 22:12:00,
2013-09-29 23:17:00,59.0,50.7,29.63,South,180,0.0,3.0,74,0.00,,,0.00,meteohub,2013-09-29 22:17:00,
2013-09-29 23:22:00,59.0,50.7,29.63,South,180,0.0,3.0,74,0.00,,,0.00,meteohub,2013-09-29 22:22:00,
2013-09-29 23:27:00,59.0,50.7,29.63,South,180,0.0,2.0,74,0.00,,,0.00,meteohub,2013-09-29 22:27:00,
2013-09-29 23:32:00,59.0,51.1,29.63,WSW,248,0.0,0.0,75,0.00,,,0.00,meteohub,2013-09-29 22:32:00,
2013-09-29 23:37:00,59.0,51.1,29.63,ENE,68,0.0,0.0,75,0.00,,,0.00,meteohub,2013-09-29 22:37:00,
2013-09-29 23:42:00,59.0,51.1,29.63,ENE,68,0.0,2.0,75,0.00,,,0.00,meteohub,2013-09-29 22:42:00,
2013-09-29 23:47:00,59.0,51.1,29.63,NE,45,0.0,2.0,75,0.00,,,0.00,meteohub,2013-09-29 22:47:00,
2013-09-29 23:52:00,59.2,51.6,29.63,NE,45,0.0,2.0,76,0.00,,,0.00,meteohub,2013-09-29 22:52:00,
2013-09-29 23:57:00,59.2,51.6,29.63,East,90,0.0,0.0,76,0.00,,,0.00,meteohub,2013-09-29 22:57:00,